Regional Weather Roundup
Issued by NWS Tiyan, Guam

Current Version | Previous Version | Text Only | Print | Product List | Glossary On
Versions: 1 2 3 4 5 6 7 8 9 10 11 12 13 14 15 16 17 18 19 20 21 22 23 24 25 26 27 28 29 30 31 32 33 34 35 36 37 38 39 40 41 42 43 44 45 46 47 48 49 50
000
ASGM40 PGUM 280610
RWRGUM
WEATHER ROUNDUP FOR THE MARIANAS
NATIONAL WEATHER SERVICE TIYAN GU
400 PM CHST SAT FEB 28 2015

GUZ001>004-280700-
MARIANA ISLANDS-

CITY           SKY/WX    TMP DP  RH WIND       PRES   REMARKS
GUAM AIRPORT   MOSUNNY   86  70  58 E15G22    29.86R HX  90
ANDERSEN AFB   PTSUNNY   82  73  74 NE17      29.87R
ROTA AIRPORT   MOSUNNY   82  73  74 NE17      29.87
TINIAN AP      MOSUNNY   82  72  69 NE18      29.86
SAIPAN AP      MOSUNNY   82  72  69 NE16G26   29.87S

$$



USA.gov is the U.S. government's official web portal to all federal, state and local government web resources and services.